Regional Weather Roundup
Issued by NWS

Home | Current Version | Previous Version | Graphics & Text | Print | Product List | Glossary On
Versions: 1 2 3 4 5 6 7 8 9 10 11 12 13 14 15 16 17 18 19 20 21 22 23 24 25 26 27 28 29 30 31 32 33 34 35 36 37 38 39 40 41 42 43 44 45 46 47 48 49 50
000
ASUS43 KOAX 091402
RWRNE

WEATHER ROUNDUP FOR NEBRASKA
NATIONAL WEATHER SERVICE OMAHA NE
800 AM CST TUE FEB 09 2016

NOTES: SATELLITE DATA IS BEING USED TO AUGMENT CLOUD COVER ABOVE
       12000 FEET.
       "FAIR" INDICATES FEW OR NO CLOUDS BELOW 12,000 FEET WITH NO
       SIGNIFICANT WEATHER AND/OR OBSTRUCTIONS TO VISIBILITY.

  * THESE STATIONS DO NOT REPORT WEATHER SUCH AS RAIN...SNOW OR FOG.

NEZ001>004-019>022-054>056-091500-
NEBRASKA PANHANDLE

CITY           SKY/WX    TMP DP  RH WIND       PRES   REMARKS
SCOTTSBLUFF    CLEAR     28  22  78 NW10      30.26F WCI  19
ALLIANCE       CLEAR     22  19  89 W8        30.21S WCI  12
CHADRON        CLOUDY    34  27  75 W7        30.23F WCI  28
SIDNEY         CLEAR     30  23  75 NW14      30.24S WCI  19
$$

NEZ057>060-069>072-079>082-091500-
SOUTHWEST NEBRASKA

CITY           SKY/WX    TMP DP  RH WIND       PRES   REMARKS
NORTH PLATTE   CLOUDY    26  19  74 NW5       30.24R WCI  20
IMPERIAL       CLEAR     27  21  78 NW9       30.25R WCI  18
MCCOOK         CLOUDY    28  18  66 NW6       30.25S WCI  22
$$

NEZ005>010-023>029-035>040-094-091500-
NORTH CENTRAL NEBRASKA

CITY           SKY/WX    TMP DP  RH WIND       PRES   REMARKS
VALENTINE      CLOUDY    24  19  81 NE10      30.26R WCI  14
BROKEN BOW     CLOUDY    26  19  74 N9        30.21S WCI  17
ORD            CLOUDY    24  15  68 N15       30.24R WCI  11
$$

NEZ041-046>049-061>064-073>077-083>087-091500-
SOUTH CENTRAL NEBRASKA

CITY           SKY/WX    TMP DP  RH WIND       PRES   REMARKS
GRAND ISLAND   CLOUDY    20  12  71 NW12      30.24R WCI   8
HASTINGS       CLOUDY    23  15  71 N12       30.23R WCI  12
$$

NEZ011>018-030>034-042>045-091500-
NORTHEAST NEBRASKA

CITY           SKY/WX    TMP DP  RH WIND       PRES   REMARKS
NORFOLK        CLEAR     14   6  70 NW13      30.23R WCI   0
COLUMBUS *     CLEAR     16   0  48 W18G25    30.23R WCI  -1
TEKAMAH        CLEAR     14   3  61 NW24      30.22R WCI  -5
$$

NEZ050>053-065>068-078-088>093-091500-
SOUTHEAST NEBRASKA

CITY           SKY/WX    TMP DP  RH WIND       PRES   REMARKS
LINCOLN        CLEAR     18   6  59 N21       30.23R WCI   1
OMAHA EPPLEY   PTCLDY    13   6  74 NW17      30.20R WCI  -4
FALLS CITY     PTCLDY    18   8  65 N13       30.18R WCI   5
$$

NEZ044-045-051>053-067-091500-
OMAHA AREA

CITY           SKY/WX    TMP DP  RH WIND       PRES   REMARKS
OMAHA EPPLEY   PTCLDY    13   6  74 NW17      30.20R WCI  -4
OFFUTT AFB     PTCLDY    15   5  66 NW17      30.20R WCI  -2
$$



USA.gov is the U.S. government's official web portal to all federal, state and local government web resources and services.